FW8282 Weather Reports


Display with metric or nautical units.
time (UTC)temp
F
wind
direction
speed
MPH
gust
MPH
rain 1hr
in
rain 24hr
in
rain mn
in
humidity
%
barometer
mb
20260509214510 90 276 3.0 3.0 0.00 0.00 0.00 53 1010.7
20260509214007 91 269 3.0 5.0 0.00 0.00 0.00 54 1010.4
20260509213503 91 262 0.0 0.0 0.00 0.00 0.00 55 1010.6
20260509213000 90 259 5.0 6.0 0.00 0.00 0.00 56 1010.4
20260509212457 91 254 2.0 5.0 0.00 0.00 0.00 51 1010.5
20260509211954 91 172 1.0 3.0 0.00 0.00 0.00 49 1010.4
20260509211449 90 243 3.0 5.0 0.00 0.00 0.00 52 1010.1
20260509210946 90 248 0.0 0.0 0.00 0.00 0.00 52 1010.3
20260509210443 91 320 3.0 6.0 0.00 0.00 0.00 53 1010.3
20260509205938 91 226 1.0 5.0 0.00 0.00 0.00 53 1010.0
20260509205433 92 218 0.0 0.0 0.00 0.00 0.00 54 1010.0
20260509204929 92 300 4.0 7.0 0.00 0.00 0.00 53 1010.2
20260509204425 91 228 0.0 0.0 0.00 0.00 0.00 54 1010.1
20260509203923 91 243 0.0 0.0 0.00 0.00 0.00 55 1010.2
20260509203418 90 271 6.0 8.0 0.00 0.00 0.00 55 1010.1
20260509202916 90 270 5.0 7.0 0.00 0.00 0.00 56 1010.1
20260509202412 90 272 3.0 5.0 0.00 0.00 0.00 57 1010.3
20260509201907 90 257 5.0 7.0 0.00 0.00 0.00 56 1010.4
20260509201403 90 271 9.0 13.0 0.00 0.00 0.00 57 1010.2
20260509200900 91 305 3.0 7.0 0.00 0.00 0.00 56 1010.5
20260509200400 91 255 8.0 10.0 0.00 0.00 0.00 56 1010.5
20260509195857 90 257 9.0 10.0 0.00 0.00 0.00 55 1010.4
20260509195356 91 246 1.0 3.0 0.00 0.00 0.00 54 1010.3
20260509194857 91 248 3.0 9.0 0.00 0.00 0.00 54 1010.6
20260509194353 92 218 5.0 7.0 0.00 0.00 0.00 54 1010.5
20260509193849 92 223 0.0 1.0 0.00 0.00 0.00 51 1010.8
20260509193344 92 259 5.0 7.0 0.00 0.00 0.00 54 1010.7
20260509192840 92 286 3.0 5.0 0.00 0.00 0.00 56 1010.7
20260509192336 91 221 4.0 5.0 0.00 0.00 0.00 53 1010.8
20260509191832 91 219 4.0 7.0 0.00 0.00 0.00 54 1010.9
20260509191328 91 264 4.0 6.0 0.00 0.00 0.00 55 1010.7
20260509190824 91 269 6.0 7.0 0.00 0.00 0.00 54 1010.8
20260509190321 91 310 6.0 8.0 0.00 0.00 0.00 55 1011.1
20260509185819 91 275 7.0 8.0 0.00 0.00 0.00 55 1011.1
20260509185314 92 226 4.0 6.0 0.00 0.00 0.00 55 1010.9
20260509184812 92 264 0.0 0.0 0.00 0.00 0.00 54 1010.9
20260509184310 92 209 0.0 0.0 0.00 0.00 0.00 53 1011.0
20260509183806 92 279 0.0 1.0 0.00 0.00 0.00 53 1011.0
20260509183301 93 255 8.0 10.0 0.00 0.00 0.00 52 1011.3
20260509182757 92 249 4.0 5.0 0.00 0.00 0.00 56 1011.5
20260509182254 91 237 3.0 6.0 0.00 0.00 0.00 53 1011.6
20260509181751 93 251 0.0 0.0 0.00 0.00 0.00 51 1011.5
20260509181249 91 240 2.0 3.0 0.00 0.00 0.00 55 1011.4
20260509180746 91 204 6.0 7.0 0.00 0.00 0.00 55 1011.6
20260509180242 92 339 1.0 2.0 0.00 0.00 0.00 53 1011.7
20260509175738 93 338 5.0 7.0 0.00 0.00 0.00 53 1011.7
20260509175235 93 272 5.0 8.0 0.00 0.00 0.00 52 1011.7
20260509174731 93 219 0.0 0.0 0.00 0.00 0.00 50 1011.6
20260509174226 92 273 5.0 7.0 0.00 0.00 0.00 53 1011.5
20260509173723 91 272 4.0 5.0 0.00 0.00 0.00 53 1011.7
20260509173219 91 252 3.0 6.0 0.00 0.00 0.00 53 1011.6
20260509172715 92 239 3.0 6.0 0.00 0.00 0.00 52 1011.7
20260509172211 91 293 5.0 6.0 0.00 0.00 0.00 53 1011.6
20260509171707 92 284 7.0 9.0 0.00 0.00 0.00 53 1011.6
20260509171203 92 216 0.0 0.0 0.00 0.00 0.00 51 1011.7
20260509170700 93 249 1.0 2.0 0.00 0.00 0.00 52 1011.8
20260509170156 91 213 1.0 2.0 0.00 0.00 0.00 54 1011.6
20260509165655 92 258 5.0 6.0 0.00 0.00 0.00 55 1011.7
20260509165150 91 318 0.0 0.0 0.00 0.00 0.00 56 1012.0
20260509164647 91 215 1.0 2.0 0.00 0.00 0.00 55 1011.9
20260509164142 91 294 2.0 5.0 0.00 0.00 0.00 56 1012.0
20260509163640 90 263 4.0 6.0 0.00 0.00 0.00 57 1011.8
20260509163136 91 280 0.0 0.0 0.00 0.00 0.00 56 1011.8
20260509162633 92 267 3.0 6.0 0.00 0.00 0.00 56 1012.0
20260509162129 93 202 0.0 0.0 0.00 0.00 0.00 55 1012.0
20260509161625 92 162 0.0 1.0 0.00 0.00 0.00 56 1012.0
20260509161120 90 187 0.0 0.0 0.00 0.00 0.00 59 1012.1
20260509160617 90 248 0.0 0.0 0.00 0.00 0.00 66 1012.0
20260509160112 89 187 0.0 0.0 0.00 0.00 0.00 65 1012.3
20260509155609 89 254 0.0 0.0 0.00 0.00 0.00 67 1012.0
20260509155105 87 225 0.0 0.0 0.00 0.00 0.00 69 1012.1
20260509154600 87 279 0.0 0.0 0.00 0.00 0.00 72 1012.4
20260509154058 87 238 0.0 0.0 0.00 0.00 0.00 71 1012.1
20260509153555 87 174 0.0 0.0 0.00 0.00 0.00 73 1012.3
20260509153052 87 189 0.0 0.0 0.00 0.00 0.00 69 1012.3
20260509152548 87 210 0.0 0.0 0.00 0.00 0.00 70 1012.5
20260509152046 85 226 0.0 0.0 0.00 0.00 0.00 72 1012.6
20260509151541 85 264 1.0 3.0 0.00 0.00 0.00 73 1013.0
20260509151039 86 156 0.0 0.0 0.00 0.00 0.00 74 1012.8
20260509150537 85 144 0.0 0.0 0.00 0.00 0.00 73 1012.9
20260509150035 83 265 0.0 0.0 0.00 0.00 0.00 75 1012.9
20260509145530 84 205 0.0 0.0 0.00 0.00 0.00 77 1012.9
20260509145025 82 243 0.0 0.0 0.00 0.00 0.00 79 1013.0
20260509144523 83 136 0.0 0.0 0.00 0.00 0.00 79 1012.9
20260509144020 83 172 0.0 0.0 0.00 0.00 0.00 80 1012.8
20260509143517 84 156 0.0 0.0 0.00 0.00 0.00 78 1013.1
20260509143015 84 188 0.0 0.0 0.00 0.00 0.00 78 1013.1
20260509142510 83 131 0.0 0.0 0.00 0.00 0.00 80 1012.9
20260509142005 82 170 0.0 0.0 0.00 0.00 0.00 80 1013.0
20260509141502 82 221 0.0 0.0 0.00 0.00 0.00 83 1012.7
20260509140959 80 141 0.0 0.0 0.00 0.00 0.00 85 1012.8
20260509140455 79 176 0.0 0.0 0.00 0.00 0.00 89 1012.8
20260509135954 77 161 0.0 0.0 0.00 0.00 0.00 91 1013.0
20260509135451 77 158 0.0 0.0 0.00 0.00 0.00 94 1012.9
20260509134948 76 167 0.0 0.0 0.00 0.00 0.00 94 1012.9
20260509134445 76 173 0.0 0.0 0.00 0.00 0.00 95 1012.7
20260509133943 75 159 0.0 0.0 0.00 0.00 0.00 96 1013.0
20260509133439 74 166 0.0 0.0 0.00 0.00 0.00 97 1012.9
20260509132937 74 169 0.0 0.0 0.00 0.00 0.00 97 1013.0
20260509132435 73 165 0.0 0.0 0.00 0.00 0.00 97 1013.0
20260509131932 74 154 0.0 0.0 0.00 0.00 0.00 98 1013.0
20260509131429 73 154 0.0 0.0 0.00 0.00 0.00 98 1013.0
20260509130926 73 99 0.0 0.0 0.00 0.00 0.00 98 1013.1
20260509130421 73 117 0.0 0.0 0.00 0.00 0.00 98 1013.1
20260509125918 73 141 0.0 0.0 0.00 0.00 0.00 98 1013.1
20260509125415 73 153 0.0 0.0 0.00 0.00 0.00 98 1013.0
20260509124911 73 187 0.0 0.0 0.00 0.00 0.00 98 1013.1
20260509124408 73 158 0.0 0.0 0.00 0.00 0.00 98 1013.1
20260509123906 73 118 0.0 0.0 0.00 0.00 0.00 98 1013.2
20260509123403 73 153 0.0 0.0 0.00 0.00 0.00 98 1013.0
20260509122858 73 165 0.0 0.0 0.00 0.00 0.00 98 1013.1
20260509122355 72 149 0.0 0.0 0.00 0.00 0.00 98 1013.0
20260509121852 72 151 0.0 0.0 0.00 0.00 0.00 98 1013.0
20260509121349 72 151 0.0 0.0 0.00 0.00 0.00 98 1012.8
20260509120848 72 168 0.0 0.0 0.00 0.00 0.00 98 1013.1
20260509120345 72 155 0.0 0.0 0.00 0.00 0.00 98 1013.0
20260509115843 72 180 0.0 0.0 0.00 0.00 0.00 98 1012.9
20260509115340 72 172 0.0 0.0 0.00 0.00 0.00 98 1012.7
20260509114838 72 162 0.0 0.0 0.00 0.00 0.00 98 1012.5
20260509114336 72 157 0.0 0.0 0.00 0.00 0.00 98 1012.7
20260509113835 71 153 0.0 0.0 0.00 0.00 0.00 98 1012.5
20260509113331 71 148 0.0 0.0 0.00 0.00 0.00 98 1012.4
20260509112828 71 161 0.0 0.0 0.00 0.00 0.00 98 1012.0
20260509112325 71 159 0.0 0.0 0.00 0.00 0.00 98 1012.0
20260509111822 71 151 0.0 0.0 0.00 0.00 0.00 98 1012.3
20260509111319 71 157 0.0 0.0 0.00 0.00 0.00 98 1011.9
20260509110817 71 169 0.0 0.0 0.00 0.00 0.00 98 1012.0
20260509110313 71 170 0.0 0.0 0.00 0.00 0.00 98 1011.6
20260509105812 71 172 0.0 0.0 0.00 0.00 0.00 98 1011.5
20260509105309 71 169 0.0 0.0 0.00 0.00 0.00 98 1011.8
20260509104806 71 176 0.0 0.0 0.00 0.00 0.00 98 1011.9
20260509104302 70 172 0.0 0.0 0.00 0.00 0.00 98 1011.7
20260509103800 71 140 0.0 0.0 0.00 0.00 0.00 98 1011.4
20260509103257 71 184 0.0 0.0 0.00 0.00 0.00 98 1011.1
20260509102756 71 179 0.0 0.0 0.00 0.00 0.00 98 1011.3
20260509102253 71 178 0.0 0.0 0.00 0.00 0.00 98 1011.2
20260509101749 71 178 0.0 0.0 0.00 0.00 0.00 98 1011.2
20260509101245 71 183 0.0 0.0 0.00 0.00 0.00 98 1011.4
20260509100743 71 179 0.0 0.0 0.00 0.00 0.00 98 1011.3
20260509100240 70 176 0.0 0.0 0.00 0.00 0.00 98 1011.2
20260509095736 71 176 0.0 0.0 0.00 0.00 0.00 98 1011.3
20260509095234 70 176 0.0 0.0 0.00 0.00 0.00 98 1011.4
20260509094731 71 172 0.0 0.0 0.00 0.00 0.00 98 1011.4
20260509094227 71 172 0.0 0.0 0.00 0.00 0.00 98 1011.4
20260509093725 71 169 0.0 0.0 0.00 0.00 0.00 98 1011.5
20260509093222 71 162 0.0 0.0 0.00 0.00 0.00 98 1011.2
20260509092721 71 176 0.0 0.0 0.00 0.00 0.00 98 1011.4
20260509092219 71 176 0.0 0.0 0.00 0.00 0.00 98 1011.2
20260509091716 71 172 0.0 0.0 0.00 0.00 0.00 97 1011.4
20260509091212 72 169 0.0 0.0 0.00 0.00 0.00 97 1011.3
20260509090710 73 230 0.0 0.0 0.00 0.00 0.00 98 1011.5
20260509090207 71 143 0.0 0.0 0.00 0.00 0.00 97 1011.6
20260509085705 71 169 0.0 0.0 0.00 0.00 0.00 97 1011.3
20260509085201 71 169 0.0 0.0 0.00 0.00 0.00 98 1011.2
20260509084658 71 161 0.0 0.0 0.00 0.00 0.00 97 1011.4
20260509084154 71 161 0.0 0.0 0.00 0.00 0.00 97 1011.5
20260509083653 72 161 0.0 0.0 0.00 0.00 0.00 97 1011.7
20260509083148 71 169 0.0 0.0 0.00 0.00 0.00 97 1011.5
20260509082646 71 169 0.0 0.0 0.00 0.00 0.00 97 1011.4
20260509082142 72 162 0.0 0.0 0.00 0.00 0.00 97 1011.6
20260509081640 72 165 0.0 0.0 0.00 0.00 0.00 97 1011.5
20260509081137 72 168 0.0 0.0 0.00 0.00 0.00 97 1011.4
20260509080635 72 169 0.0 0.0 0.00 0.00 0.00 97 1011.6
20260509080133 71 169 0.0 0.0 0.00 0.00 0.00 97 1011.6
20260509075630 72 165 0.0 0.0 0.00 0.00 0.00 97 1011.7
20260509075128 72 163 0.0 0.0 0.00 0.00 0.00 97 1011.9
20260509074624 72 162 0.0 0.0 0.00 0.00 0.00 97 1011.6
20260509074121 72 161 0.0 0.0 0.00 0.00 0.00 97 1012.0
20260509073618 72 154 0.0 0.0 0.00 0.00 0.00 97 1012.0
20260509073114 72 165 0.0 0.0 0.00 0.00 0.00 97 1011.9
20260509072611 72 163 0.0 0.0 0.00 0.00 0.00 97 1012.0
20260509072108 72 155 0.0 0.0 0.00 0.00 0.00 97 1011.9
20260509071604 73 169 0.0 0.0 0.00 0.00 0.00 97 1011.9
20260509071102 72 169 0.0 0.0 0.00 0.00 0.00 97 1012.1
20260509070559 72 161 0.0 0.0 0.00 0.00 0.00 96 1012.1
20260509070055 72 156 0.0 0.0 0.00 0.00 0.00 96 1012.1
20260509065550 72 161 0.0 0.0 0.00 0.00 0.00 96 1012.4
20260509065047 73 159 0.0 0.0 0.00 0.00 0.00 96 1012.3
20260509064544 73 157 0.0 0.0 0.00 0.00 0.00 96 1012.3
20260509064043 73 156 0.0 0.0 0.00 0.00 0.00 96 1012.6
20260509063538 73 148 0.0 0.0 0.00 0.00 0.00 96 1012.6
20260509063035 72 157 0.0 0.0 0.00 0.00 0.00 96 1012.7
20260509062532 72 156 0.0 0.0 0.00 0.00 0.00 96 1012.8
20260509062030 73 156 0.0 0.0 0.00 0.00 0.00 96 1012.9
20260509061526 73 151 0.0 0.0 0.00 0.00 0.00 96 1012.8
20260509061024 73 155 0.0 0.0 0.00 0.00 0.00 96 1012.9
20260509060521 73 155 0.0 0.0 0.00 0.00 0.00 96 1012.8
20260509060017 73 149 0.0 0.0 0.00 0.00 0.00 96 1013.1
20260509055512 73 155 0.0 0.0 0.00 0.00 0.00 96 1013.0
20260509055009 73 151 0.0 0.0 0.00 0.00 0.00 96 1012.8
20260509054505 73 155 0.0 0.0 0.00 0.00 0.00 96 1013.1
20260509054004 73 151 0.0 0.0 0.00 0.00 0.00 96 1013.4
20260509053502 73 151 0.0 0.0 0.00 0.00 0.00 95 1013.4
20260509052958 74 151 0.0 0.0 0.00 0.00 0.00 95 1013.6
20260509052456 74 149 0.0 0.0 0.00 0.00 0.00 95 1013.5
20260509051954 74 151 0.0 0.0 0.00 0.00 0.00 95 1013.5
20260509051451 74 149 0.0 0.0 0.00 0.00 0.00 95 1013.5
20260509050948 74 151 0.0 0.0 0.00 0.00 0.00 95 1013.4
20260509050445 74 152 0.0 0.0 0.00 0.00 0.00 95 1013.6
20260509045941 75 151 0.0 0.0 0.00 0.00 0.00 95 1013.8
20260509045439 75 153 0.0 0.0 0.00 0.00 0.00 95 1013.8
20260509044935 75 152 0.0 0.0 0.00 0.00 0.00 95 1014.0
20260509044434 75 125 0.0 0.0 0.00 0.00 0.00 95 1013.7
20260509043931 74 159 0.0 0.0 0.00 0.00 0.00 94 1013.9
20260509043426 75 150 0.0 0.0 0.00 0.00 0.00 94 1014.0
20260509042922 75 148 0.0 0.0 0.00 0.00 0.00 94 1014.0
20260509042419 75 144 0.0 0.0 0.00 0.00 0.00 94 1014.0
20260509041915 75 152 0.0 0.0 0.00 0.00 0.00 94 1013.8
20260509041412 75 150 0.0 0.0 0.00 0.00 0.00 94 1014.1
20260509040910 75 150 0.0 0.0 0.00 0.00 0.00 94 1013.9
20260509040408 75 148 0.0 0.0 0.00 0.00 0.00 94 1014.0
20260509035905 75 147 0.0 0.0 0.00 0.00 0.00 94 1013.9
20260509035402 75 151 0.0 0.0 0.00 0.00 0.00 94 1014.0
20260509034858 75 150 0.0 0.0 0.00 0.00 0.00 93 1014.3
20260509034355 75 149 0.0 0.0 0.00 0.00 0.00 93 1014.1
20260509033853 75 151 0.0 0.0 0.00 0.00 0.00 93 1014.1
20260509033350 76 154 0.0 0.0 0.00 0.00 0.00 93 1013.9
20260509032846 76 176 0.0 0.0 0.00 0.00 0.00 93 1014.0
20260509032343 76 164 0.0 0.0 0.00 0.00 0.00 93 1014.0
20260509031842 76 171 0.0 0.0 0.00 0.00 0.00 93 1013.7
20260509031338 76 164 0.0 0.0 0.00 0.00 0.00 93 1013.7
20260509030836 76 144 0.0 0.0 0.00 0.00 0.00 92 1013.7
20260509030334 76 167 0.0 0.0 0.00 0.00 0.00 92 1014.1
20260509025831 77 179 0.0 0.0 0.00 0.00 0.00 92 1013.9
20260509025326 77 179 0.0 0.0 0.00 0.00 0.00 92 1013.6
20260509024821 77 218 0.0 0.0 0.00 0.00 0.00 92 1013.5
20260509024318 77 224 0.0 0.0 0.00 0.00 0.00 92 1013.8
20260509023815 77 210 0.0 0.0 0.00 0.00 0.00 92 1013.6
20260509023312 77 158 0.0 0.0 0.00 0.00 0.00 92 1013.6
20260509022809 77 166 0.0 0.0 0.00 0.00 0.00 92 1013.6
20260509022307 77 230 0.0 0.0 0.00 0.00 0.00 91 1013.5
20260509021803 77 198 0.0 0.0 0.00 0.00 0.00 91 1013.4
20260509021300 77 143 0.0 0.0 0.00 0.00 0.00 91 1013.5
20260509020758 77 185 0.0 0.0 0.00 0.00 0.00 90 1013.6
20260509020255 78 43 0.0 0.0 0.00 0.00 0.00 90 1013.3
20260509015753 78 289 0.0 0.0 0.00 0.00 0.00 89 1013.5
20260509015251 78 211 0.0 0.0 0.00 0.00 0.00 89 1013.4
20260509014747 78 212 0.0 0.0 0.00 0.00 0.00 88 1013.2
20260509014244 78 191 0.0 0.0 0.00 0.00 0.00 87 1013.0
20260509013741 79 28 0.0 0.0 0.00 0.00 0.00 87 1013.1
20260509013236 79 60 0.0 0.0 0.00 0.00 0.00 86 1013.1
20260509012733 79 320 0.0 0.0 0.00 0.00 0.00 85 1013.1
20260509012230 79 234 0.0 0.0 0.00 0.00 0.00 84 1013.0
20260509011727 79 232 0.0 0.0 0.00 0.00 0.00 83 1013.1
20260509011225 80 233 0.0 0.0 0.00 0.00 0.00 82 1012.9
20260509010723 80 263 0.0 0.0 0.00 0.00 0.00 82 1012.9
20260509010219 80 191 0.0 0.0 0.00 0.00 0.00 81 1012.9
20260509005716 80 238 0.0 0.0 0.00 0.00 0.00 81 1012.7
20260509005214 80 280 0.0 0.0 0.00 0.00 0.00 81 1012.5
20260509004713 80 200 0.0 0.0 0.00 0.00 0.00 80 1012.5
20260509004212 81 165 0.0 0.0 0.00 0.00 0.00 80 1012.3
20260509003709 81 248 0.0 0.0 0.00 0.00 0.00 79 1012.5
20260509003207 81 239 0.0 0.0 0.00 0.00 0.00 79 1012.4
20260509002704 81 214 0.0 0.0 0.00 0.00 0.00 79 1011.9
20260509002201 81 330 0.0 0.0 0.00 0.00 0.00 78 1012.0
20260509001659 82 246 0.0 0.0 0.00 0.00 0.00 77 1012.1
20260509001155 82 206 0.0 0.0 0.00 0.00 0.00 77 1011.8
20260509000653 82 177 0.0 0.0 0.00 0.00 0.00 76 1011.9
20260509000149 82 274 0.0 0.0 0.00 0.00 0.00 75 1011.7
20260508235647 82 331 1.0 3.0 0.00 0.00 0.00 74 1011.6
20260508235143 83 249 0.0 0.0 0.00 0.00 0.00 74 1011.9
20260508234641 83 315 3.0 3.0 0.00 0.00 0.00 73 1011.7
20260508234137 83 254 0.0 0.0 0.00 0.00 0.00 74 1011.6
20260508233636 84 327 3.0 3.0 0.00 0.00 0.00 73 1011.7
20260508233134 84 245 6.0 10.0 0.00 0.00 0.00 72 1011.4
20260508232631 85 334 5.0 6.0 0.00 0.00 0.00 71 1011.5
20260508232128 85 335 0.0 1.0 0.00 0.00 0.00 70 1011.3
20260508231625 85 318 0.0 0.0 0.00 0.00 0.00 70 1011.3
20260508231122 86 270 3.0 5.0 0.00 0.00 0.00 69 1011.2
20260508230618 86 264 5.0 6.0 0.00 0.00 0.00 69 1011.0
20260508230115 87 261 9.0 10.0 0.00 0.00 0.00 66 1011.2
20260508225613 87 342 0.0 0.0 0.00 0.00 0.00 65 1011.1
20260508225109 87 350 7.0 11.0 0.00 0.00 0.00 61 1011.0
20260508224607 87 290 3.0 5.0 0.00 0.00 0.00 63 1011.0
20260508224104 88 358 3.0 5.0 0.00 0.00 0.00 63 1011.1
20260508223602 88 260 1.0 5.0 0.00 0.00 0.00 60 1010.9
20260508223058 88 285 5.0 7.0 0.00 0.00 0.00 61 1010.8
20260508222556 89 266 0.0 0.0 0.00 0.00 0.00 60 1010.8
20260508222053 89 314 3.0 3.0 0.00 0.00 0.00 60 1010.7
20260508221549 89 313 2.0 3.0 0.00 0.00 0.00 60 1010.9
20260508221045 89 332 5.0 7.0 0.00 0.00 0.00 59 1010.8
20260508220542 90 61 2.0 5.0 0.00 0.00 0.00 59 1010.8
20260508220038 90 272 4.0 8.0 0.00 0.00 0.00 58 1010.6
20260508215535 90 258 3.0 3.0 0.00 0.00 0.00 58 1010.7
20260508215032 90 76 2.0 3.0 0.00 0.00 0.00 59 1010.7